Location: Champignolles
(47.0543°N, 4.5663°E)
Time: 05:04:45
(UTC+00:00)

COSMO-SKYMED 1 - Pass Details

Date: 30 November 2020
Orbit: 621 x 623 km, 97.9° (Epoch: 18 January)

Event Time Altitude Azimuth Distance (km) Brightness Sun altitude
Exits shadow 17:04:37 13° 42° (NE) 1,820 4.4 -11.5°
Maximum altitude 17:07:43 26° 94° (E) 1,236 3.6 -12.0°
Drops below altitude 10° 17:11:21 10° 152° (SSE) 1,989 5.1 -12.6°
Sets 17:13:50 0° 165° (SSE) 2,890 6.0 -13.0°
